TimeEDT,TemperatureF,Dew PointF,Humidity,Sea Level PressureIn,VisibilityMPH,Wind Direction,Wind SpeedMPH,Gust SpeedMPH,PrecipitationIn,Events,Conditions,WindDirDegrees,DateUTC
12:54 AM,37.4,30.2,75,30.31,10.0,SSE,5.8,-,N/A,,Clear,160,2013-03-11 04:54:00
1:54 AM,36.0,30.0,79,30.34,10.0,South,4.6,-,N/A,,Partly Cloudy,170,2013-03-11 05:54:00
2:54 AM,37.0,30.9,79,30.32,10.0,SSW,4.6,-,N/A,,Clear,200,2013-03-11 06:54:00
3:46 AM,35.6,30.2,81,30.28,10.0,SSW,4.6,-,N/A,,Mostly Cloudy,210,2013-03-11 07:46:00
3:54 AM,36.0,30.9,82,30.29,10.0,SSW,4.6,-,N/A,,Overcast,210,2013-03-11 07:54:00
4:54 AM,36.0,30.0,79,30.28,10.0,SSW,8.1,-,N/A,,Overcast,210,2013-03-11 08:54:00
5:54 AM,36.0,30.0,79,30.26,10.0,SSW,4.6,-,N/A,,Overcast,210,2013-03-11 09:54:00
6:54 AM,36.0,30.0,79,30.28,10.0,SSW,3.5,-,N/A,,Overcast,210,2013-03-11 10:54:00
7:54 AM,36.0,30.9,82,30.28,10.0,SSW,6.9,-,N/A,,Overcast,210,2013-03-11 11:54:00
8:54 AM,37.0,30.9,79,30.27,10.0,South,3.5,-,N/A,,Overcast,180,2013-03-11 12:54:00
9:24 AM,37.4,30.2,75,30.27,10.0,SW,6.9,-,N/A,,Partly Cloudy,220,2013-03-11 13:24:00
9:54 AM,39.9,30.9,70,30.27,10.0,SW,8.1,-,N/A,,Clear,220,2013-03-11 13:54:00
10:54 AM,43.0,30.9,62,30.27,10.0,SSW,8.1,-,N/A,,Clear,200,2013-03-11 14:54:00
11:54 AM,44.1,30.0,58,30.26,10.0,SW,8.1,-,N/A,,Clear,220,2013-03-11 15:54:00
12:54 PM,46.9,30.9,54,30.25,10.0,SW,5.8,-,N/A,,Clear,220,2013-03-11 16:54:00
1:54 PM,50.0,30.0,46,30.22,10.0,SSW,8.1,-,N/A,,Clear,210,2013-03-11 17:54:00
2:54 PM,52.0,28.0,40,30.20,10.0,SSW,10.4,-,N/A,,Scattered Clouds,200,2013-03-11 18:54:00
3:54 PM,52.0,28.9,41,30.19,10.0,SSW,10.4,-,N/A,,Partly Cloudy,210,2013-03-11 19:54:00
4:54 PM,53.1,34.0,48,30.17,10.0,South,4.6,-,N/A,,Clear,180,2013-03-11 20:54:00
5:54 PM,52.0,35.1,53,30.17,10.0,Calm,Calm,-,N/A,,Clear,0,2013-03-11 21:54:00
6:54 PM,50.0,37.4,62,30.17,10.0,South,3.5,-,N/A,,Clear,170,2013-03-11 22:54:00
7:54 PM,46.9,37.0,68,30.18,10.0,South,6.9,-,N/A,,Clear,190,2013-03-11 23:54:00
8:54 PM,46.0,37.9,73,30.18,10.0,South,8.1,-,N/A,,Clear,190,2013-03-12 00:54:00
9:54 PM,45.0,37.9,76,30.17,10.0,SSW,6.9,-,N/A,,Clear,200,2013-03-12 01:54:00
10:36 PM,44.6,39.2,81,30.17,10.0,South,4.6,-,N/A,,Mostly Cloudy,190,2013-03-12 02:36:00
10:54 PM,44.1,39.0,82,30.17,10.0,South,3.5,-,N/A,,Overcast,180,2013-03-12 02:54:00
11:11 PM,44.6,39.2,81,30.16,10.0,South,3.5,-,N/A,,Scattered Clouds,190,2013-03-12 03:11:00
11:44 PM,44.6,39.2,81,30.17,10.0,SSW,5.8,-,N/A,,Mostly Cloudy,210,2013-03-12 03:44:00
11:54 PM,44.1,39.0,82,30.18,10.0,South,4.6,-,N/A,,Overcast,190,2013-03-12 03:54:00